Theta_e
352 352 351 355 354 354 354 354 355 356 356 356 356 356 357 357 357 357 357 357 356 356 355 356 355 354 353 353 352 352 352 352 351 351 351 352 351 352 352 352 351 351 351 352 351 351 353 352 352 351 350 349 347 346 346 349 348 348 348 349 349 349 349 348 348 346 345 343 342 340 339 340 341 341 341 341 340 340 340 339 338 333 334 335 336
351 353 353 355 354 354 354 354 354 355 356 356 355 355 356 356 356 356 356 356 356 355 355 354 353 352 352 352 352 352 352 351 351 351 351 352 352 350 351 350 350 350 351 351 352 351 350 350 350 350 349 347 347 347 347 346 346 346 348 349 348 347 346 345 342 341 343 342 342 343 343 342 342 342 340 339 338 340 339 338 338 335 334 334 333
353 353 353 355 355 354 354 354 354 355 355 355 355 355 355 356 355 355 356 355 355 355 354 352 352 351 350 352 352 352 352 351 351 350 350 351 352 350 350 351 350 350 351 351 350 350 349 349 349 349 349 349 348 347 346 346 345 345 346 346 346 345 344 343 344 343 344 343 342 342 342 341 340 338 338 337 337 337 337 341 339 335 333 334 334
352 353 353 356 354 354 353 353 354 354 354 355 355 354 354 354 355 355 354 354 354 353 352 351 351 351 352 352 352 352 351 351 351 350 350 350 351 349 350 350 351 352 351 350 349 349 348 349 349 349 348 347 347 346 346 345 345 344 344 344 344 344 345 345 345 343 340 341 343 344 341 340 338 339 339 339 337 339 339 339 339 336 334 334 334
353 353 353 354 354 354 353 354 353 354 354 354 354 354 354 354 354 354 353 353 353 351 350 351 351 352 352 352 352 351 351 351 350 350 350 350 351 349 348 348 348 348 349 349 349 349 348 348 348 348 347 347 346 345 345 345 345 344 344 344 344 344 344 344 344 344 344 342 342 347 341 340 340 339 339 340 341 340 339 340 340 336 334 334 334
353 353 350 352 353 354 353 353 353 354 354 354 354 354 354 354 353 353 353 352 352 351 352 352 352 352 352 352 352 352 352 351 351 351 352 350 350 349 347 347 348 348 348 348 349 348 348 347 347 347 347 346 346 345 345 345 345 345 344 344 343 343 344 343 343 342 341 341 342 343 343 342 341 340 341 340 338 338 337 340 340 338 334 334 334
355 353 352 351 354 352 353 353 353 353 353 353 354 353 353 354 353 353 353 352 353 353 352 353 353 352 352 352 352 351 351 350 350 350 350 351 351 350 348 349 349 348 346 347 347 348 347 347 347 347 347 346 346 345 345 344 343 344 344 343 343 343 342 343 341 341 341 344 346 344 342 341 340 337 339 339 341 340 339 339 338 338 334 335 335
355 354 353 352 353 353 353 354 353 353 353 353 353 353 353 353 353 353 353 353 352 352 352 353 353 353 352 352 351 350 350 350 350 350 351 351 351 350 349 348 347 346 346 345 346 346 347 347 346 346 346 346 346 345 344 344 344 344 345 344 343 342 341 341 340 340 340 344 345 346 345 343 341 339 339 339 339 339 339 339 338 338 337 335 334
352 353 353 353 353 353 354 353 353 353 353 353 353 353 353 353 353 353 353 352 353 353 353 353 352 352 351 351 351 350 349 350 350 350 351 350 349 349 350 348 347 347 347 348 348 347 346 346 346 347 347 347 346 345 344 344 345 346 344 342 342 342 341 340 340 341 346 344 344 343 344 342 341 340 339 340 339 337 337 337 338 338 337 334 334
351 354 354 353 353 353 353 353 353 353 353 353 354 353 353 353 353 353 353 353 353 353 353 352 351 351 351 350 350 350 350 347 348 350 351 348 350 350 350 348 347 347 347 347 347 346 346 347 347 347 348 347 345 344 345 346 346 346 345 345 343 343 340 339 340 341 344 344 344 344 343 349 341 339 338 339 337 337 339 339 340 340 338 334 334
352 353 354 352 352 352 352 352 353 353 353 353 353 353 353 353 354 353 353 353 353 353 352 351 351 351 351 351 350 348 349 348 346 347 350 350 351 350 349 348 347 347 347 347 347 347 346 347 348 348 348 347 346 346 346 346 345 344 344 344 343 342 343 341 341 344 344 342 343 340 338 340 343 341 338 336 338 338 337 337 337 338 338 335 335
350 353 353 352 353 351 352 353 353 353 353 353 353 353 353 353 353 353 353 353 352 352 352 351 351 351 350 350 350 348 349 348 346 346 348 348 351 349 348 347 347 347 346 347 347 347 347 348 348 347 347 346 345 345 346 345 344 343 343 342 343 341 341 344 343 343 344 343 342 345 342 341 338 338 337 339 338 337 338 338 339 338 338 335 334
350 350 353 352 353 352 352 352 352 353 353 353 353 353 353 353 353 352 352 352 352 352 352 350 350 351 351 350 349 349 349 349 348 349 349 348 350 349 348 347 346 346 347 347 347 347 347 346 346 346 346 345 345 345 344 343 342 343 343 343 341 343 340 343 344 343 343 343 343 343 341 344 342 339 339 339 339 339 340 339 337 339 337 335 334
349 349 353 350 351 354 352 352 352 353 353 352 352 352 353 353 352 352 352 352 352 352 351 352 351 351 351 350 349 349 349 349 349 348 346 348 350 348 347 347 347 346 347 347 346 346 346 345 344 344 344 344 344 343 343 342 342 343 343 343 343 342 341 346 345 343 343 342 344 342 343 343 342 340 339 339 338 339 340 339 337 336 336 335 334
350 351 353 351 350 352 353 351 351 351 351 351 352 352 352 352 352 352 352 352 352 351 351 351 351 351 350 350 349 349 349 349 348 348 347 349 348 348 347 347 346 346 346 346 345 344 344 344 344 343 343 343 343 342 341 342 344 343 344 344 342 343 343 342 342 343 342 341 342 341 342 341 340 342 338 338 338 339 338 337 336 336 336 335 333
354 355 354 352 348 351 354 353 351 351 351 351 351 352 352 352 352 352 351 351 351 350 351 351 350 350 350 350 349 349 348 348 348 348 348 348 348 347 347 346 346 346 346 345 345 344 344 343 342 342 342 342 342 342 341 342 343 343 344 344 342 342 344 346 344 343 343 343 342 342 342 340 341 340 339 337 337 338 337 336 336 336 336 336 334
355 356 354 352 352 349 351 351 353 352 351 351 351 351 351 351 351 351 351 351 351 351 350 350 350 350 350 349 349 348 348 348 348 347 347 347 346 346 345 345 346 346 345 345 344 343 342 341 341 341 341 341 340 342 342 342 343 344 345 344 341 341 342 346 343 344 342 342 340 340 342 340 342 341 338 338 336 337 335 335 336 336 335 336 334
354 350 349 350 351 349 352 353 354 351 355 352 351 351 351 351 350 350 350 350 350 350 350 350 349 349 349 349 348 348 347 347 347 347 346 347 346 345 345 345 346 345 345 345 343 341 340 341 341 341 341 341 340 341 342 342 343 343 343 344 341 341 342 344 345 344 343 342 341 341 342 343 341 340 338 338 337 335 336 335 335 335 334 335 335
350 351 351 351 351 348 348 348 353 353 355 354 352 355 350 349 349 350 350 350 348 350 349 349 349 349 349 348 348 348 348 347 347 346 346 346 346 345 345 345 345 344 344 344 342 341 341 341 340 341 341 341 341 342 342 342 343 342 341 342 342 341 341 345 344 343 342 343 342 342 342 340 342 339 339 338 337 336 336 335 335 335 335 335 335
348 349 347 351 352 351 348 347 351 352 354 355 355 355 347 346 348 350 349 348 348 350 349 349 349 349 349 348 348 349 348 348 346 347 346 345 346 345 345 345 344 344 344 344 343 341 341 341 342 341 340 340 340 340 340 340 339 339 341 342 344 342 346 344 343 342 343 341 342 341 340 342 340 339 339 338 337 336 334 335 334 334 335 334 334
347 347 345 346 349 347 348 346 347 350 347 353 354 351 351 346 348 350 347 349 349 349 349 348 348 348 348 348 347 350 351 349 348 346 346 348 346 345 345 345 344 344 344 344 343 342 342 342 342 342 340 340 340 339 339 338 338 338 339 343 344 347 346 345 345 343 342 340 341 341 341 340 341 339 338 337 337 336 335 334 334 334 334 334 335
340 343 345 347 347 350 349 349 350 347 348 346 352 352 348 344 346 349 348 348 349 349 347 345 347 348 347 348 351 350 349 349 350 344 347 344 346 345 345 344 344 343 343 343 342 343 342 342 342 341 338 339 339 340 338 338 337 338 340 342 347 346 346 344 344 341 343 343 342 339 341 340 338 339 338 337 336 335 335 334 334 333 335 336 336
340 342 345 346 347 346 347 347 347 348 349 347 346 348 344 345 346 343 348 345 347 346 345 344 345 345 343 348 350 351 347 348 345 345 346 343 348 345 345 344 343 343 343 343 343 343 343 343 342 341 342 336 341 336 335 335 338 337 339 344 346 345 344 344 343 342 342 342 342 341 340 339 339 339 338 337 336 335 334 335 335 334 334 335 335
340 341 343 345 345 344 344 346 346 348 349 349 346 343 344 342 348 344 342 342 343 344 343 343 345 347 349 349 349 349 348 349 345 345 345 346 347 345 345 344 344 343 344 344 344 343 343 343 342 340 342 341 339 335 335 334 336 342 344 343 344 344 344 344 341 342 343 339 339 341 339 339 339 338 338 337 336 336 335 334 335 335 335 335 335
340 342 343 345 345 344 344 345 347 348 348 350 347 343 345 348 346 342 340 341 340 343 347 346 347 346 347 348 347 348 348 347 346 345 345 346 341 344 344 341 343 343 343 340 341 340 344 340 341 340 341 338 337 338 338 336 338 341 341 342 343 344 344 343 342 341 343 343 341 341 340 340 340 338 338 337 337 336 335 334 335 335 334 335 335
339 339 342 343 344 343 344 346 346 347 347 342 340 343 342 341 339 341 341 339 342 344 347 346 344 342 346 346 347 347 346 346 346 345 345 347 345 343 342 344 340 342 342 341 339 339 342 341 340 339 338 338 337 337 338 337 338 339 338 342 344 345 343 343 341 341 344 343 342 341 341 340 340 337 338 337 336 336 336 334 334 334 335 336 335
337 340 342 341 341 342 342 345 344 345 339 337 336 338 341 342 344 342 342 340 342 343 344 344 339 341 341 342 344 342 341 345 345 345 344 347 346 345 343 342 342 341 340 340 339 339 337 338 338 339 338 337 335 336 336 336 338 336 339 339 343 342 343 341 342 342 343 342 341 341 341 340 340 337 338 336 336 335 336 335 334 333 335 335 335
338 340 340 340 342 341 343 344 345 342 342 341 340 340 342 341 342 343 343 343 344 343 344 344 342 342 340 343 342 340 337 336 340 345 345 346 346 346 344 341 342 339 339 339 338 339 338 338 340 338 336 336 335 336 334 333 336 338 337 338 342 342 343 341 343 344 344 343 341 342 341 341 339 340 337 336 336 335 335 335 334 334 332 332 334
337 340 340 338 339 342 344 341 341 343 345 343 341 342 343 344 341 343 342 341 345 345 344 343 346 346 346 345 343 341 341 337 343 344 345 345 345 344 342 341 342 340 340 338 341 342 342 340 339 338 338 335 335 336 333 333 335 338 337 336 338 340 342 343 344 343 342 342 341 342 341 341 341 340 337 335 336 335 335 335 335 334 332 331 332
338 338 339 339 339 341 339 339 343 345 345 344 344 343 344 344 346 343 340 341 341 339 341 343 345 345 346 345 344 342 340 338 337 340 342 343 343 343 344 342 341 342 341 340 342 342 342 341 340 339 335 335 335 335 334 334 333 335 335 335 336 337 342 341 342 340 342 343 342 342 341 341 340 340 340 337 336 336 334 333 334 334 333 332 330
338 336 336 335 340 341 342 342 342 345 343 341 343 342 343 344 344 341 339 337 340 337 340 343 343 344 345 347 346 344 341 339 337 339 344 343 342 344 341 342 344 341 342 342 343 344 344 342 340 337 336 334 335 334 333 334 333 332 333 333 335 338 339 341 339 340 340 342 343 343 342 340 340 340 340 339 338 336 334 334 333 333 333 333 332
334 335 334 335 339 341 342 341 343 345 345 341 342 340 341 341 344 341 339 338 338 339 341 341 342 341 343 345 345 345 344 347 344 343 344 343 339 339 337 338 341 341 340 341 343 344 343 341 341 340 339 338 337 336 336 334 333 332 332 332 334 337 336 340 339 340 340 343 342 344 343 341 340 340 340 339 339 340 336 334 334 334 333 334 333
332 334 333 336 338 339 340 340 341 344 343 342 341 341 342 342 342 344 341 338 336 339 340 342 338 342 344 344 342 342 343 342 343 342 342 341 338 337 340 340 338 339 341 345 342 343 341 342 342 341 338 339 339 337 333 335 334 333 334 332 334 332 333 334 339 341 340 341 341 342 344 343 341 340 339 340 338 338 337 336 334 334 333 332 333
335 336 336 335 337 341 342 343 341 341 342 340 341 340 342 344 343 342 341 340 341 341 341 342 341 340 342 341 341 340 339 340 340 341 341 338 340 338 336 336 342 344 343 342 342 343 340 338 339 340 335 337 338 338 335 335 334 334 335 334 336 338 336 334 338 341 342 340 339 341 339 344 343 341 340 340 340 338 339 338 337 336 334 333 332
334 334 336 335 337 341 341 342 342 342 340 341 340 343 345 343 341 343 342 343 342 342 343 342 339 340 340 339 339 339 338 337 337 337 340 341 339 340 342 342 336 343 340 340 338 338 339 339 338 337 338 336 336 337 336 337 335 335 337 338 335 334 337 337 339 338 339 342 343 340 341 343 347 339 340 340 340 337 338 340 338 337 336 334 334
335 336 335 336 338 342 342 342 343 342 341 341 345 345 344 346 343 340 342 342 339 338 340 339 340 340 340 339 340 339 340 339 338 337 338 340 338 338 340 340 339 338 341 347 344 339 339 341 341 340 336 335 334 335 338 337 337 336 337 339 339 338 337 336 338 336 337 339 338 342 343 341 341 341 339 342 341 339 336 338 339 338 337 336 335
336 336 337 336 337 340 342 343 342 343 342 341 343 344 346 344 344 340 343 343 340 340 339 341 340 340 340 339 339 340 340 339 338 339 340 340 339 339 340 341 343 342 343 346 343 343 339 339 340 340 338 339 333 336 338 339 339 339 340 340 339 338 340 340 338 340 336 338 339 339 340 337 340 336 345 340 341 339 337 338 336 337 338 339 337
337 338 339 339 338 340 341 342 344 342 341 340 342 343 344 344 344 342 342 341 341 340 340 341 340 340 341 341 340 341 341 340 340 340 340 340 340 340 340 342 342 341 343 342 340 341 340 337 334 339 340 336 336 337 336 338 338 338 338 338 339 339 340 341 340 337 338 336 336 338 338 339 340 341 342 337 339 338 338 336 337 338 338 337 336
336 337 338 340 339 341 341 342 341 341 341 343 343 343 343 342 343 342 342 340 340 340 341 340 339 340 340 340 340 341 341 340 340 340 340 339 339 340 341 342 341 341 340 333 333 334 336 337 337 336 339 341 337 337 337 339 338 337 337 339 338 337 339 339 341 339 338 337 338 337 336 340 340 340 338 337 339 340 341 343 338 335 337 334 337
334 336 336 337 341 342 341 340 341 341 343 343 342 341 341 339 338 340 338 338 339 337 338 337 339 338 339 339 339 341 340 340 340 340 340 341 340 340 342 342 341 340 338 332 332 334 331 333 336 338 338 337 340 340 341 339 338 338 337 338 336 336 337 338 338 337 338 337 338 339 337 338 340 340 340 339 338 338 340 341 341 336 334 335 334
336 335 333 335 337 341 341 338 342 343 342 340 340 339 338 337 338 336 334 336 335 336 336 337 337 338 338 338 340 341 341 340 340 340 342 340 341 341 341 340 340 339 338 334 333 334 336 336 339 338 336 336 337 339 339 339 335 334 335 335 334 336 337 337 336 336 335 337 337 337 335 337 338 338 340 340 340 339 341 342 340 338 339 337 337
336 335 335 333 339 337 334 342 342 343 343 342 341 340 339 336 335 334 333 333 332 332 335 335 336 338 338 339 339 340 341 340 339 340 340 340 340 340 339 338 337 336 336 337 336 336 338 338 338 336 337 335 335 337 337 337 333 330 329 329 332 334 336 336 333 333 334 335 336 336 337 337 336 338 339 339 339 339 338 339 341 338 337 338 338
339 338 339 334 338 336 335 343 342 342 343 343 341 339 339 339 339 336 335 332 336 337 335 335 335 334 338 338 338 339 337 338 340 340 339 340 340 339 338 337 338 338 338 337 337 336 337 336 337 334 333 335 335 337 337 337 329 332 333 329 325 324 329 332 333 333 334 336 335 334 334 334 335 336 338 337 335 336 334 336 336 335 334 333 334
337 338 338 336 336 339 340 343 344 344 343 343 342 341 340 340 341 340 339 335 333 336 337 337 336 335 335 337 337 337 337 336 336 336 340 341 340 339 339 338 338 339 338 337 336 335 335 335 335 335 334 330 331 331 337 338 335 331 324 322 325 324 319 322 326 330 334 334 335 333 333 332 333 334 336 334 333 335 335 335 334 334 334 333 332
337 337 338 338 340 339 340 341 343 343 343 343 341 340 339 338 338 341 339 336 335 332 330 329 331 331 331 334 334 337 336 334 336 335 334 335 335 336 335 335 336 337 337 336 336 336 336 336 336 331 332 329 327 331 334 337 336 337 330 322 320 320 320 321 325 325 331 329 331 332 333 332 332 332 332 333 335 336 335 334 334 333 333 334 333
337 339 341 340 341 341 343 345 344 342 341 342 341 339 338 336 334 330 328 328 327 327 325 325 327 329 325 330 331 333 334 335 334 334 333 333 334 334 335 332 333 334 334 335 335 336 336 335 336 334 330 331 328 327 330 334 336 336 336 335 331 322 321 325 322 315 327 329 329 327 329 331 332 332 332 332 332 332 331 330 329 330 330 331 331
337 340 341 342 341 341 343 345 344 341 341 341 341 340 339 336 334 332 330 329 327 328 328 329 328 327 328 328 328 334 333 333 334 333 333 332 334 334 334 333 333 334 335 334 333 334 334 335 336 335 333 333 333 329 330 330 331 333 334 334 332 331 331 327 318 319 316 322 326 327 327 327 329 329 327 328 329 328 326 326 326 325 327 329 329
338 340 341 341 341 341 343 344 344 342 342 342 340 340 337 336 335 332 331 329 329 328 330 330 330 328 327 328 330 330 332 332 333 332 333 332 333 333 333 334 332 331 331 331 332 332 334 334 336 338 337 336 335 331 330 331 328 328 331 332 333 331 332 331 326 320 319 317 317 322 324 326 326 325 325 324 325 324 324 323 321 322 323 323 324
339 339 339 341 341 340 342 343 343 342 341 341 340 339 338 336 335 333 330 330 330 330 329 328 327 328 327 329 330 329 331 333 332 331 332 331 332 332 334 332 332 331 329 330 331 332 333 333 333 333 337 337 337 335 332 330 331 329 330 331 331 328 330 330 329 327 320 317 316 317 317 321 323 322 322 323 322 323 323 321 320 320 322 323 323
339 340 341 341 339 339 339 339 339 340 341 340 339 339 338 337 334 334 332 329 330 328 328 327 327 327 327 328 328 328 328 329 331 332 332 331 332 332 331 331 332 330 329 331 331 331 332 332 332 332 334 332 332 334 333 332 332 332 332 331 327 326 327 327 327 325 323 323 317 315 317 317 316 317 321 321 321 321 321 321 322 319 321 322 322
339 339 339 338 339 338 338 338 338 339 340 339 339 338 338 336 334 335 333 331 330 328 326 326 325 325 324 326 326 326 328 328 329 332 332 331 332 332 331 330 331 331 329 328 329 329 330 330 332 333 332 332 332 332 331 332 331 329 330 329 326 325 326 322 323 323 323 321 319 318 319 318 316 315 318 319 319 317 317 319 319 318 319 320 320
Wind_Speed
14 16 16 16 14 15 15 16 16 14 15 15 15 15 17 16 16 17 17 17 17 16 16 15 16 16 16 16 15 15 14 13 13 12 10 12 14 15 15 15 14 13 14 15 15 15 16 15 15 14 13 13 12 13 12 12 10 9 9 11 12 12 11 11 11 12 12 12 13 12 12 13 13 13 12 12 11 10 11 11 10 10 9 11 12
17 16 15 16 15 15 16 17 18 15 16 16 16 17 17 16 17 17 17 16 16 16 16 15 16 16 15 16 15 14 14 13 13 12 12 10 13 14 14 15 15 14 14 14 14 14 15 14 14 13 13 12 13 13 12 11 10 10 12 12 12 12 11 10 10 10 12 12 13 14 14 14 13 12 12 11 11 12 12 13 14 10 9 13 11
17 16 15 18 17 17 16 16 17 16 17 17 16 17 16 16 17 17 17 17 16 15 15 15 16 15 15 15 14 13 13 13 13 12 12 11 12 15 15 15 14 13 14 14 14 13 13 13 14 14 13 13 13 12 12 11 10 10 12 12 12 10 10 9 10 12 12 13 11 13 14 13 12 11 11 11 12 12 13 15 14 13 10 13 11
17 14 15 18 19 16 16 18 17 17 17 17 17 17 17 17 16 16 16 15 14 14 15 14 15 14 14 14 14 13 13 13 13 12 12 11 11 14 14 13 15 15 14 14 13 13 13 13 13 13 13 13 12 12 11 11 11 10 10 11 10 10 9 10 10 10 10 12 14 12 8 9 10 12 12 12 11 13 13 13 15 14 13 12 12
17 15 15 15 17 16 17 18 16 18 18 18 18 18 17 15 16 15 15 14 14 16 14 16 15 14 14 14 13 13 13 13 12 12 12 12 11 13 13 13 12 13 13 13 13 13 13 13 13 13 12 12 12 12 12 12 11 10 10 10 10 10 9 9 9 6 5 5 8 5 8 9 8 11 11 12 12 12 11 14 15 13 12 13 13
16 15 15 14 16 17 17 17 19 19 19 19 18 18 17 17 17 16 16 16 16 15 15 15 14 14 14 14 14 13 13 12 12 12 10 10 9 12 12 13 13 12 12 13 13 13 13 12 13 13 13 13 12 13 13 12 11 10 10 9 8 9 8 8 7 5 5 5 12 3 6 9 8 9 11 10 11 11 11 14 13 12 11 12 13
17 14 14 14 13 16 16 17 21 20 20 19 18 19 18 18 17 17 16 16 15 15 14 14 14 13 14 13 13 13 13 13 13 12 11 9 8 10 12 13 13 13 12 12 13 13 12 12 13 13 13 13 13 13 13 12 11 10 9 9 9 8 8 9 4 2 5 8 5 5 5 7 8 7 10 11 12 11 11 12 12 12 11 11 11
15 13 14 13 13 17 16 17 20 20 21 20 19 18 18 18 17 16 16 15 14 14 14 14 14 13 13 13 13 13 13 13 13 12 9 8 9 10 12 13 12 12 12 12 12 12 12 12 12 13 13 14 14 13 13 12 11 10 10 9 8 8 8 6 4 5 8 3 3 5 5 7 8 7 9 10 10 11 11 11 10 11 11 9 9
15 15 14 13 15 19 17 17 17 19 19 19 18 17 17 17 16 16 16 15 14 13 14 14 14 14 13 12 13 13 13 13 13 12 9 9 9 10 10 12 12 11 11 10 10 11 11 12 11 12 13 14 14 14 13 12 12 10 10 9 8 8 6 4 6 7 7 4 4 5 7 8 7 8 9 10 9 9 8 8 11 12 13 10 11
14 14 14 13 16 16 16 16 17 19 19 19 18 18 17 16 16 16 16 15 13 12 13 14 14 14 13 13 12 11 12 10 9 12 9 9 5 6 9 10 11 11 11 11 11 10 11 11 11 12 13 13 13 13 12 11 10 9 8 8 7 7 5 2 8 12 1 3 6 7 9 12 9 8 9 9 8 9 13 17 14 13 11 12 12
15 13 13 14 19 16 16 17 17 19 19 19 18 17 17 16 16 15 14 14 13 12 12 13 14 14 13 12 11 11 10 12 7 9 8 7 9 10 12 10 9 10 10 11 10 10 10 10 10 12 12 12 12 11 9 9 8 8 7 5 4 4 4 8 11 1 3 6 6 6 8 5 8 8 9 9 10 10 10 10 10 11 12 12 11
14 13 13 15 18 16 16 16 17 17 18 18 17 17 16 15 15 15 14 14 14 13 12 12 13 14 14 12 12 12 13 11 11 11 7 10 12 13 13 11 11 11 10 10 10 9 9 9 11 11 11 11 10 9 7 7 7 7 5 4 4 4 3 6 9 4 2 6 7 4 5 8 9 9 9 10 9 9 10 10 11 11 12 11 12
14 13 14 16 17 15 15 16 17 17 17 17 17 17 17 16 15 15 15 14 14 13 13 12 11 11 13 13 13 12 11 10 8 10 10 10 13 13 12 12 11 11 11 10 10 11 10 10 11 11 11 9 9 8 7 6 5 4 4 4 4 4 6 9 4 2 4 5 4 5 7 7 9 9 9 9 10 10 9 9 10 12 11 11 12
13 14 14 15 14 17 15 15 16 16 16 17 17 16 16 16 16 15 14 14 14 14 13 12 11 12 12 13 13 12 11 10 9 11 12 11 13 12 12 12 12 12 11 11 10 10 10 10 9 10 10 9 7 6 7 6 4 2 2 3 3 5 7 8 9 3 5 4 3 6 6 6 8 7 9 9 8 10 10 10 10 10 11 10 10
13 15 15 14 15 16 18 15 16 17 16 16 16 15 16 15 15 14 15 15 14 13 13 12 12 13 13 13 13 12 12 11 10 11 11 10 11 11 11 12 12 11 12 11 10 10 9 9 9 9 8 7 5 4 4 4 4 2 1 1 2 4 11 5 2 4 4 4 4 4 7 8 7 4 9 8 8 9 9 9 9 10 10 10 10
14 14 14 14 15 15 14 15 16 16 16 16 17 17 16 16 15 16 15 14 14 13 13 13 13 14 13 13 12 12 12 11 11 11 9 9 9 11 9 10 11 11 12 12 11 11 10 10 9 7 7 6 6 3 2 3 3 1 0 1 2 4 9 11 2 4 3 4 4 5 7 8 2 4 8 7 8 10 9 9 9 9 9 10 10
13 13 13 14 15 14 13 13 14 17 17 17 15 16 16 15 16 15 15 14 14 14 13 13 12 12 12 13 12 11 11 12 11 11 11 10 11 11 12 9 10 11 12 12 12 11 10 10 9 9 7 6 5 3 1 1 2 1 2 2 3 4 7 11 3 3 3 5 3 4 6 7 5 6 8 8 7 9 8 8 8 8 9 9 9
12 14 13 14 14 12 11 12 14 14 13 13 14 14 15 14 15 15 15 15 14 14 14 13 12 12 13 13 13 12 12 12 12 11 10 11 10 10 10 10 10 11 12 12 12 11 11 10 9 9 8 7 6 4 1 3 2 2 3 2 4 4 5 9 4 3 5 3 4 3 6 11 5 6 8 8 8 7 8 8 8 8 8 9 9
11 12 13 13 13 13 13 12 12 13 13 10 10 12 14 15 14 14 15 14 14 14 14 13 13 13 13 14 13 14 12 12 12 11 11 11 11 10 10 10 10 10 11 12 11 11 10 10 10 9 9 8 7 6 3 3 4 3 3 2 4 4 4 8 4 4 5 3 3 4 8 6 2 6 8 8 7 7 7 7 8 8 8 8 9
9 11 10 8 11 11 10 10 11 12 10 9 11 11 13 16 13 13 13 14 14 14 14 13 15 14 14 14 14 12 12 11 12 11 11 11 9 9 11 10 10 10 11 11 11 10 9 9 9 9 9 8 7 5 3 2 3 3 2 1 5 7 6 3 3 4 3 5 1 6 9 1 3 7 8 7 7 7 6 8 7 7 8 7 7
8 9 9 7 10 12 11 10 12 13 12 9 9 12 10 14 12 14 15 15 15 15 14 14 14 13 13 12 11 9 8 8 9 9 11 9 10 11 11 11 11 11 11 11 10 9 9 8 8 8 6 6 6 6 4 1 1 1 2 2 7 7 4 3 3 3 3 6 3 9 6 3 3 7 8 7 8 8 7 6 6 6 6 7 7
10 9 11 12 11 11 14 12 10 12 10 10 6 5 7 9 7 7 9 13 13 13 12 11 12 11 12 11 7 7 6 7 7 9 7 10 9 11 12 11 11 11 11 11 10 10 9 9 8 6 4 3 6 6 6 5 3 1 3 3 7 5 4 4 2 3 4 3 6 10 5 2 5 6 7 7 7 7 7 6 6 6 7 7 8
10 9 8 10 9 9 11 11 10 10 11 9 8 8 8 5 6 6 8 7 6 10 8 10 9 9 9 7 6 6 6 6 7 6 6 8 10 10 11 11 10 10 10 10 10 10 9 9 8 6 4 5 8 2 4 6 5 7 6 7 5 4 5 5 3 3 3 4 8 11 4 2 5 6 7 7 7 6 6 7 6 6 6 7 7
10 8 8 8 9 8 9 9 10 10 8 5 9 8 6 8 7 6 5 5 2 3 3 6 7 8 7 6 5 5 5 4 6 8 9 7 8 10 11 11 11 10 11 10 11 10 10 10 8 7 9 6 1 3 4 3 4 5 4 5 4 5 5 5 4 3 4 3 9 11 5 3 2 6 6 7 7 6 5 6 8 7 7 6 7
9 8 8 7 8 8 7 8 8 8 7 5 6 6 5 5 6 7 4 2 1 7 5 5 6 7 6 4 5 5 5 5 6 6 6 6 7 7 8 8 6 7 10 5 6 8 9 7 7 7 3 2 2 1 2 2 3 4 3 3 3 5 5 4 3 4 3 5 8 9 6 2 2 5 7 7 6 6 5 5 7 5 7 5 5
8 8 8 8 7 7 7 6 6 7 7 10 7 7 9 7 6 4 4 2 4 3 2 3 5 3 2 3 3 3 4 5 5 5 4 5 6 6 7 6 8 6 7 4 4 5 5 5 5 4 3 3 3 2 3 3 2 2 3 3 4 4 4 4 3 2 4 5 8 9 6 3 1 4 6 7 6 6 6 5 6 6 6 5 5
8 7 8 7 7 7 7 7 6 8 12 9 5 6 7 3 4 4 4 4 2 1 2 4 5 4 1 2 3 1 5 6 3 4 5 5 4 4 4 5 6 5 5 4 4 4 4 4 4 4 4 4 4 4 4 4 2 3 3 4 3 4 4 3 3 3 4 5 8 9 7 4 1 3 5 6 6 5 6 6 6 5 6 4 4
8 7 7 6 6 7 6 7 8 11 8 10 9 8 7 6 4 4 3 4 4 2 3 3 4 4 3 3 2 3 4 5 6 5 4 3 3 2 2 3 3 4 4 3 5 5 4 4 4 5 5 4 4 4 3 3 4 4 4 5 5 5 4 3 3 3 3 5 7 8 8 5 3 1 5 5 6 6 6 6 5 7 5 4 4
9 9 6 7 7 6 5 10 6 8 7 9 9 8 7 6 6 4 4 2 1 2 4 2 4 4 4 4 5 3 3 5 4 4 3 3 3 3 3 4 3 3 4 4 4 4 4 4 4 5 5 4 4 4 4 4 3 3 3 3 4 4 4 4 3 4 3 4 5 8 8 7 4 1 4 3 5 5 5 7 6 6 5 3 4
9 9 8 5 3 2 8 9 6 6 7 8 8 6 6 5 4 4 3 3 2 3 2 3 1 3 4 4 3 3 2 4 2 7 2 2 1 4 2 3 3 3 4 4 4 4 4 3 4 5 6 5 5 4 4 5 5 4 4 4 5 3 3 4 4 4 4 4 6 7 9 7 4 3 2 3 5 5 4 3 7 6 6 5 4
9 9 8 5 2 6 6 7 7 6 6 7 7 7 6 6 4 2 0 1 3 1 5 1 2 0 2 4 3 4 4 2 4 6 1 3 2 4 5 3 1 2 3 4 4 3 3 3 4 4 5 5 5 5 4 4 4 6 5 5 5 4 3 3 4 4 4 4 5 6 9 8 6 5 3 2 2 5 4 4 3 3 6 5 5
6 6 8 3 4 5 6 6 5 6 5 7 7 6 5 5 6 4 4 3 2 5 3 1 1 3 5 2 1 1 1 1 2 3 3 2 2 4 3 3 2 3 3 4 4 3 3 3 4 3 3 4 5 4 3 3 4 4 5 4 5 4 4 3 3 3 3 3 3 5 6 7 8 7 5 3 3 2 3 5 5 4 4 7 5
6 10 7 6 6 7 7 7 6 6 6 6 6 6 5 5 4 3 3 5 1 3 4 1 1 4 3 2 2 1 2 3 3 3 3 3 4 5 3 1 6 4 6 2 2 3 1 1 4 4 5 4 5 5 4 3 2 3 2 4 3 3 3 3 2 3 3 4 4 4 5 6 8 7 5 5 4 2 2 2 5 4 3 2 5
10 9 10 9 7 4 3 5 6 6 6 6 6 5 5 4 4 3 3 4 4 5 4 2 4 5 2 1 1 2 3 3 1 3 3 6 4 3 4 5 3 4 2 3 3 1 7 7 6 5 5 5 5 5 4 4 3 3 3 2 2 1 2 3 3 3 3 3 3 3 5 9 6 5 7 8 4 5 2 3 5 5 3 3 3
11 10 9 10 10 7 6 5 7 7 7 7 6 6 6 5 4 3 2 3 4 3 3 3 4 3 2 3 3 3 5 4 3 3 3 5 5 3 2 2 4 3 4 5 5 6 6 5 3 4 5 4 5 5 4 4 4 3 3 2 2 3 3 3 3 3 5 2 2 2 1 1 6 7 8 4 9 4 2 3 2 2 4 4 3
9 11 11 11 11 8 7 6 8 9 8 7 6 5 6 5 5 5 4 5 3 3 3 4 4 3 3 3 4 5 5 4 4 5 5 5 5 3 3 3 5 3 6 0 1 3 1 1 2 1 3 4 4 5 3 4 3 3 2 1 1 1 1 2 2 3 3 5 4 4 3 2 4 4 3 8 5 5 6 3 1 1 2 3 2
11 11 11 12 11 10 8 9 9 9 8 7 6 6 6 6 6 7 7 7 7 6 5 4 3 3 3 2 2 3 3 3 3 4 3 4 3 3 2 2 3 3 2 1 2 1 2 2 1 2 3 3 2 4 3 4 4 4 3 2 2 1 0 1 1 2 2 1 1 9 10 10 1 2 2 3 6 4 4 4 5 3 2 3 4
11 11 11 11 11 10 8 8 8 7 7 7 6 6 6 6 6 6 6 6 4 3 3 4 3 2 2 2 3 2 2 3 4 3 3 2 2 1 1 1 2 3 2 2 1 1 2 3 3 0 3 5 3 5 5 4 4 4 4 3 2 2 2 1 1 1 1 9 7 2 2 1 3 2 6 1 2 5 4 4 3 2 4 5 4
10 12 11 9 10 9 8 8 7 8 8 8 7 6 6 5 5 6 6 5 5 4 3 2 2 1 2 3 3 2 2 3 3 4 3 2 2 1 0 0 2 2 2 5 5 3 2 1 2 3 2 0 1 2 2 4 4 4 4 4 3 2 2 3 1 1 3 4 3 3 3 1 0 2 1 0 1 1 1 2 2 1 1 7 2
11 9 6 6 7 8 8 7 9 9 8 8 8 8 7 5 5 5 5 4 3 3 3 3 2 2 2 3 4 3 3 2 2 3 3 2 2 2 2 1 1 1 1 2 2 0 1 5 4 3 4 4 3 3 4 4 4 4 4 4 3 2 2 3 2 2 3 3 2 1 1 1 1 1 1 1 1 1 0 2 0 4 3 8 8
13 12 12 12 8 8 7 10 9 10 9 8 8 7 6 5 4 5 4 4 4 5 4 3 3 2 3 3 4 4 3 3 2 3 2 2 1 2 1 1 0 1 1 2 4 4 4 4 3 3 4 4 4 3 3 3 5 5 4 3 3 2 3 3 3 2 2 2 2 2 1 1 1 1 2 1 2 0 2 1 1 2 5 6 5
11 14 13 10 12 10 9 10 9 10 9 9 7 7 6 5 5 5 5 4 5 5 5 5 4 3 3 3 4 5 5 4 3 2 2 2 2 2 1 1 0 0 1 1 3 0 1 2 3 3 3 4 4 4 4 4 5 4 5 4 3 3 2 3 2 2 2 1 1 0 1 1 2 2 2 3 2 2 2 3 2 3 2 3 7
10 10 12 13 12 12 11 10 10 9 8 8 7 7 7 6 5 5 4 5 4 4 5 5 5 6 4 4 4 4 5 5 5 4 3 2 2 1 2 1 1 0 2 2 2 2 2 3 3 3 3 2 3 3 4 5 3 4 3 4 5 5 5 3 2 3 1 2 1 2 2 2 3 2 2 2 2 2 3 3 4 3 4 4 4
9 9 10 13 11 11 10 9 10 10 9 9 8 8 7 7 6 6 5 4 5 6 7 6 6 6 5 3 4 3 3 4 5 5 4 4 3 2 2 2 2 0 1 1 1 2 3 3 4 2 3 4 4 4 4 4 3 5 5 4 2 4 6 4 4 3 3 3 0 2 2 2 3 4 3 3 3 3 3 4 5 5 5 5 4
9 10 10 10 9 12 12 12 10 10 9 10 9 9 9 8 8 7 6 7 6 6 6 6 5 5 5 4 4 2 2 3 3 3 5 5 4 2 2 2 2 1 0 0 1 2 3 3 4 3 3 3 2 3 3 4 4 3 3 3 4 5 5 5 5 5 2 3 3 3 3 1 3 2 3 4 3 4 4 5 5 5 5 5 4
9 9 9 10 10 10 10 9 9 9 10 11 11 10 9 9 9 8 8 7 6 5 6 6 6 5 5 3 4 3 3 2 3 4 4 4 4 2 1 1 2 1 1 1 1 2 3 3 3 7 7 6 6 5 5 3 4 3 2 3 4 1 4 4 5 3 3 4 4 4 5 4 3 3 4 5 5 5 5 5 6 6 6 6 6
11 10 10 10 10 10 10 10 9 9 10 11 12 10 10 9 10 9 7 7 6 5 5 5 5 5 4 4 4 3 3 4 3 4 4 4 3 2 2 1 3 2 1 1 1 0 1 2 3 2 4 5 5 4 5 4 4 3 3 2 1 2 3 2 2 4 5 5 4 4 5 6 6 6 6 6 6 6 5 5 6 7 7 6 6
11 11 10 9 11 11 11 11 9 9 10 11 12 10 9 9 9 8 7 7 6 7 7 6 5 5 5 5 5 4 4 4 4 3 3 3 3 3 3 3 3 3 3 2 2 1 1 2 1 1 2 2 4 4 4 3 4 3 3 4 4 2 3 2 4 5 3 6 7 6 6 7 7 7 7 7 7 7 6 5 6 6 6 7 7
10 10 10 9 9 9 10 11 9 10 10 12 11 10 9 9 8 7 7 6 8 7 6 6 6 5 6 5 4 5 5 4 3 3 2 3 3 4 4 4 4 3 3 4 4 4 3 3 2 1 2 2 2 0 1 3 3 3 4 4 4 3 3 4 7 7 5 6 6 7 7 7 7 7 6 6 7 6 6 6 6 6 6 6 7
9 9 8 8 8 8 9 11 10 9 9 12 11 10 9 8 8 7 9 8 7 7 6 6 6 6 7 6 6 4 5 5 4 3 3 3 3 4 4 5 4 4 4 4 4 4 3 3 3 2 2 2 2 1 1 2 2 2 3 3 4 5 4 4 3 5 2 3 5 7 7 8 7 6 5 5 6 6 6 5 5 6 6 5 6
7 7 7 7 7 6 7 8 9 8 10 11 10 10 9 9 8 9 9 9 9 8 8 7 6 6 7 6 6 5 4 5 5 4 3 4 4 4 4 4 4 3 3 4 3 3 3 3 3 3 3 3 3 2 1 1 0 1 1 3 3 3 3 4 4 4 2 4 5 6 6 6 8 7 5 5 5 6 6 5 5 5 5 5 6
Wind_Direction
152 139 139 134 142 139 138 138 130 121 120 121 117 115 116 109 111 117 121 121 125 127 129 128 130 128 128 125 124 122 120 124 123 123 125 126 128 126 127 127 126 127 126 123 119 120 116 116 117 118 116 110 111 114 110 96 91 98 106 97 88 84 91 103 104 106 104 96 96 100 97 93 89 87 80 79 77 61 51 40 59 59 60 65 55
149 140 139 140 138 138 140 138 132 123 119 118 117 119 116 112 115 118 119 121 123 127 129 129 128 124 124 126 122 120 121 121 122 125 130 134 133 132 130 129 131 132 129 123 121 119 121 119 117 115 115 116 117 113 104 102 98 94 91 98 98 102 101 100 98 98 91 91 89 90 92 90 86 82 80 76 70 63 54 49 44 60 69 76 67
140 139 139 137 138 139 139 137 132 124 120 116 115 118 113 107 115 119 121 122 125 127 128 129 125 128 130 122 119 119 120 120 122 124 129 134 135 133 131 130 130 133 130 126 123 121 121 120 119 119 120 119 116 113 111 104 100 97 104 98 90 90 99 103 105 103 106 107 102 95 95 89 87 86 88 76 75 73 66 55 65 64 67 80 83
141 138 135 134 137 138 140 140 135 127 121 116 115 118 118 117 117 122 122 121 122 120 122 133 128 129 123 120 121 124 123 124 127 129 130 132 133 132 131 135 138 134 132 129 126 125 125 124 124 125 124 120 117 115 111 113 96 89 94 93 95 86 81 85 83 93 117 129 140 142 111 110 103 88 85 80 77 72 74 78 77 74 77 84 83
140 137 133 140 143 139 143 140 135 129 125 121 120 121 121 119 120 119 119 118 115 122 139 128 126 124 123 125 127 127 129 130 130 130 129 131 131 130 131 129 132 132 126 131 128 130 131 131 131 127 122 119 118 113 113 116 101 100 99 97 98 93 85 78 85 100 112 190 179 195 95 91 93 92 88 87 80 78 74 79 80 78 80 76 72
139 137 139 141 144 143 142 140 136 132 129 126 127 127 128 126 123 121 122 125 129 134 128 126 125 126 131 132 132 133 134 135 136 133 129 128 131 134 134 130 129 130 133 134 135 134 136 136 133 130 126 122 120 117 118 113 107 102 102 98 98 97 85 82 89 121 187 198 245 112 99 99 100 102 98 99 89 77 76 74 79 81 79 81 81
134 137 140 144 143 144 142 139 137 134 132 132 130 131 132 131 130 129 130 132 132 131 128 127 131 134 136 139 140 138 138 138 137 134 131 133 132 130 129 130 134 136 138 138 139 137 139 140 136 132 128 129 124 122 123 119 115 107 100 101 99 94 87 81 107 214 200 233 77 86 97 102 99 96 95 87 79 77 70 71 70 74 67 60 64
138 139 144 144 144 142 141 138 136 135 136 135 134 132 133 134 133 133 132 132 133 133 134 137 140 142 141 143 143 141 140 139 137 131 121 126 132 132 134 135 136 138 136 139 139 137 138 140 141 137 135 128 124 124 122 120 114 108 101 101 98 95 91 90 84 242 246 265 76 88 99 87 93 97 87 93 91 83 72 66 73 75 72 67 88
145 143 144 142 137 142 139 137 137 135 134 134 135 133 133 134 133 132 134 135 136 139 142 144 142 141 140 142 143 143 142 142 138 135 133 125 135 142 142 137 137 132 131 133 134 138 142 143 141 138 135 132 127 127 128 126 116 99 95 96 95 90 91 105 229 242 235 82 95 95 100 111 104 97 100 89 93 98 100 102 109 87 74 66 64
146 145 141 143 141 140 139 136 137 137 137 137 137 138 137 135 134 136 138 138 137 138 141 143 143 141 140 140 138 144 136 128 135 136 132 127 141 130 101 117 131 133 134 135 138 139 140 141 144 143 140 135 132 131 124 129 118 99 98 94 92 87 93 209 229 236 76 137 75 48 27 348 101 92 90 93 79 79 64 52 52 63 76 79 76
148 148 145 139 140 137 139 138 137 139 139 139 139 139 138 139 139 139 137 138 138 140 144 145 145 144 139 134 132 127 127 119 133 137 114 112 120 105 98 104 125 130 131 133 133 136 141 142 143 144 140 135 127 119 119 119 110 105 103 103 99 97 109 229 239 79 69 72 86 94 69 18 79 90 102 96 92 87 84 80 78 77 78 75 71
151 146 140 135 133 139 139 138 137 138 139 138 138 138 138 139 140 139 139 138 141 144 145 147 148 143 136 132 133 138 126 135 144 117 151 136 119 115 122 127 125 124 126 127 130 128 122 118 129 131 129 128 132 133 120 109 104 105 110 118 125 140 236 252 263 84 87 68 69 83 127 104 88 94 108 109 99 88 85 81 84 82 77 74 78
153 147 135 135 143 140 138 138 139 138 141 141 140 141 141 141 143 145 143 143 145 146 147 145 143 136 131 129 125 127 125 127 130 128 126 134 119 123 123 119 114 111 117 119 116 118 122 123 128 129 129 129 130 126 114 109 111 106 114 130 155 175 212 263 263 123 79 86 109 104 88 83 87 116 109 101 102 101 86 84 82 82 77 70 74
155 144 138 142 143 140 139 138 139 140 143 146 146 147 146 147 148 149 146 145 145 145 143 142 138 127 121 125 129 130 127 123 118 126 139 136 123 127 124 121 113 111 108 107 112 117 120 123 124 123 126 126 127 129 123 116 98 100 94 118 163 184 203 238 264 102 94 93 58 73 85 98 91 103 107 103 101 99 95 88 85 80 79 76 81
147 144 140 140 143 145 141 140 142 146 147 149 149 149 149 150 149 147 148 147 144 141 141 137 129 124 124 123 125 122 122 121 121 125 142 128 127 130 127 123 116 111 110 109 110 111 109 106 112 113 112 113 112 101 100 88 82 72 74 92 162 190 198 201 197 112 104 98 117 134 100 90 101 115 102 112 112 99 99 89 83 79 79 82 72
142 137 136 140 144 144 148 145 145 145 147 148 153 153 154 153 152 150 148 143 140 140 139 133 130 129 126 123 124 125 124 124 121 122 123 124 123 117 118 124 119 111 109 111 110 109 106 100 103 104 109 102 93 76 54 79 62 28 285 133 159 194 229 276 137 122 106 115 92 77 89 93 68 100 103 107 104 99 97 98 88 81 84 88 84
136 131 136 138 144 149 147 154 151 153 156 154 152 155 158 156 153 149 144 140 138 137 132 128 123 123 122 121 120 121 122 123 122 122 124 124 127 129 128 130 112 109 111 114 113 109 106 109 112 109 106 100 102 96 306 62 68 19 315 268 147 152 267 279 118 137 102 72 97 100 98 124 79 93 106 101 103 105 101 99 96 97 89 85 83
143 149 146 146 147 147 151 156 158 161 155 151 158 162 159 156 152 146 141 139 136 131 125 122 123 125 125 122 124 123 125 122 122 122 127 124 124 127 125 117 112 111 115 117 113 111 110 108 109 113 113 118 119 114 30 343 56 60 322 312 147 134 248 275 129 107 94 146 90 90 87 77 103 110 114 111 105 110 105 104 100 88 82 82 85
149 148 146 150 150 156 158 160 169 164 157 169 166 165 160 154 149 142 138 133 134 127 121 122 131 131 128 128 126 126 125 124 123 125 124 129 124 124 120 117 116 121 123 121 120 118 114 112 110 111 113 113 113 109 81 6 35 14 24 298 163 149 216 255 132 117 121 130 117 101 86 81 19 132 116 116 115 112 112 103 100 106 92 84 83
149 146 141 148 159 153 163 166 172 167 166 165 167 160 163 157 146 134 130 129 128 122 124 132 137 134 133 130 127 127 130 128 129 130 130 130 146 131 123 124 127 127 128 126 122 119 115 112 108 109 107 105 108 100 90 63 11 20 349 119 187 181 201 212 110 111 120 71 66 91 96 118 155 124 123 121 116 101 108 105 111 102 93 90 84
147 152 142 168 176 168 170 177 182 174 164 160 175 162 149 155 145 137 136 131 128 129 134 139 138 138 139 133 142 141 134 132 151 137 143 143 116 128 134 132 133 132 130 127 127 124 118 113 111 101 112 120 123 124 103 100 67 28 338 227 182 211 181 130 145 126 118 131 159 94 97 102 166 127 124 126 122 119 117 122 107 99 105 94 79
161 158 167 172 187 168 175 173 176 166 168 179 146 140 150 152 146 134 143 134 132 134 150 150 146 141 138 147 143 137 144 146 140 144 149 135 144 142 140 138 138 135 130 133 134 133 134 126 121 115 104 191 202 183 154 147 169 164 223 208 208 201 155 163 152 133 116 122 98 108 104 126 145 128 127 129 127 127 124 118 107 98 100 92 85
168 163 165 170 171 172 174 174 173 171 172 164 161 142 168 122 146 171 131 104 123 156 164 162 148 148 149 139 137 142 147 140 141 172 141 133 138 146 139 139 137 137 140 139 142 139 138 138 129 133 164 225 223 171 199 164 162 178 202 207 201 192 163 156 168 135 138 81 96 108 114 111 140 142 130 126 118 125 133 116 117 114 103 97 96
167 165 162 167 172 176 171 171 169 167 173 171 146 162 150 192 146 101 65 81 191 300 197 165 170 143 137 138 134 138 140 141 131 139 139 148 142 148 144 141 144 149 153 158 147 143 140 142 146 164 206 212 84 199 186 191 165 191 195 202 191 171 168 170 174 147 102 139 102 113 131 124 307 136 133 127 129 142 133 121 119 118 114 108 102
168 160 162 161 168 168 161 162 162 157 158 127 79 72 86 58 69 70 52 71 273 225 189 169 145 128 126 127 135 146 155 154 163 161 181 159 155 162 160 164 156 166 176 179 169 155 180 163 162 194 164 160 162 89 297 144 196 209 188 216 183 170 178 172 169 144 130 94 101 119 136 123 333 142 141 140 135 140 130 123 119 122 115 117 102
161 167 165 153 166 160 161 151 156 151 87 57 40 63 68 42 75 102 141 182 210 258 334 4 67 74 55 68 110 141 170 166 168 174 180 175 172 173 179 165 164 169 185 177 163 174 176 177 180 173 159 153 161 174 174 219 189 203 191 187 184 175 183 169 151 139 111 114 118 123 134 125 28 154 144 145 141 146 137 137 131 120 126 120 109
165 166 164 155 158 161 166 152 139 97 95 128 150 86 78 97 105 163 138 148 161 128 62 83 75 66 134 93 90 63 351 339 191 194 177 186 184 183 171 160 167 167 174 178 161 181 193 168 169 167 167 164 171 167 190 185 213 176 202 171 172 172 171 176 152 162 117 115 125 131 137 140 60 168 151 151 151 145 142 129 133 124 134 141 125
170 146 151 139 157 167 159 154 73 79 128 133 121 124 132 140 118 135 122 145 164 144 105 93 146 173 99 104 111 134 135 230 229 193 188 196 184 190 156 172 180 170 168 183 175 182 183 178 171 166 171 164 162 182 182 171 179 191 180 162 169 167 178 164 142 129 131 123 135 137 140 134 114 345 158 153 152 161 150 142 140 141 143 157 137
157 144 129 155 157 151 149 77 128 158 124 117 124 130 136 139 141 150 149 153 222 135 83 179 177 130 141 174 193 190 164 244 230 216 182 186 182 192 191 184 191 173 176 189 189 175 178 178 171 167 161 168 159 170 182 178 183 188 164 156 159 166 159 157 153 147 149 129 128 135 147 140 135 42 133 137 147 161 161 154 144 142 138 140 133
149 141 141 72 95 116 97 133 154 131 123 121 127 128 132 136 118 108 69 102 307 45 220 207 158 149 173 194 194 182 164 195 327 301 190 189 218 195 215 217 191 173 201 184 189 188 176 170 172 171 158 170 155 167 174 178 182 158 176 171 161 176 163 167 163 164 143 150 129 138 151 145 138 122 107 134 153 154 169 153 149 156 149 154 157
142 149 113 143 104 86 115 140 142 123 130 131 135 133 135 120 98 90 138 118 92 340 272 37 78 137 241 194 173 191 171 251 226 224 179 213 207 229 204 203 166 296 268 194 194 184 181 173 181 170 166 165 154 162 181 174 173 169 177 181 169 174 175 173 181 167 164 154 143 143 147 151 146 141 126 109 65 144 134 140 157 155 146 161 158
53 99 71 80 129 146 150 168 151 135 138 135 132 120 117 116 117 154 200 107 94 221 257 117 94 227 216 210 90 97 226 128 246 255 238 219 260 337 347 273 224 174 252 255 171 192 181 186 169 176 168 159 152 164 161 177 173 165 173 168 160 173 181 181 181 164 162 141 152 137 138 154 157 159 158 147 127 69 141 147 152 172 158 163 179
139 93 132 140 177 176 155 169 165 141 153 139 133 130 129 133 136 157 131 118 142 219 237 154 160 228 225 162 180 122 84 202 225 264 278 245 189 212 260 266 242 154 229 276 207 165 243 215 186 167 178 169 164 153 169 153 177 153 187 143 171 185 158 165 183 155 168 155 157 165 157 145 154 163 162 167 153 143 79 116 146 152 154 198 171
131 118 145 172 195 182 159 173 163 159 164 146 142 135 130 128 139 141 135 139 176 196 205 174 206 229 225 224 164 194 206 219 279 263 236 259 238 177 196 244 257 223 164 201 239 132 205 195 183 182 167 180 168 160 161 161 149 178 174 162 165 139 191 152 175 159 158 178 153 170 194 137 166 169 172 166 170 154 135 146 159 159 166 181 188
122 145 168 180 202 188 174 174 167 165 169 154 159 145 139 139 145 128 155 162 177 195 184 183 223 232 188 211 185 200 229 222 224 250 265 264 264 232 216 213 257 276 219 190 200 200 224 184 164 187 160 188 170 169 169 146 168 156 133 207 161 177 183 175 154 189 169 128 208 179 81 189 160 180 144 161 154 161 150 152 157 165 175 161 195
149 166 177 193 203 199 179 173 169 174 172 165 161 149 136 146 148 150 145 151 166 195 199 199 208 211 215 215 188 191 222 225 210 224 238 242 244 243 229 208 231 189 249 98 218 221 250 262 130 54 181 174 175 161 160 147 173 148 145 156 89 335 228 160 173 228 175 190 196 145 187 232 40 40 5 149 168 152 135 136 118 139 191 200 215
188 187 178 194 204 196 192 188 173 171 173 163 168 154 145 153 164 155 156 166 178 177 171 179 200 191 183 164 173 170 201 223 225 221 227 241 230 234 230 263 270 278 288 222 235 350 329 20 349 81 20 313 163 127 149 149 157 144 129 120 97 89 103 33 186 294 18 258 1 28 16 354 84 209 198 337 99 120 133 169 173 167 193 235 224
189 195 198 187 199 194 189 180 171 162 161 160 167 157 150 157 158 152 152 145 134 137 149 163 183 187 165 141 145 161 193 185 193 193 209 214 216 221 237 243 272 274 308 273 192 314 46 115 235 145 147 213 165 179 169 161 157 150 139 133 129 137 105 96 99 198 272 33 41 179 145 193 358 352 53 60 31 159 158 181 201 195 209 196 221
186 202 215 193 192 190 181 168 162 161 160 160 160 140 137 150 146 147 140 131 138 147 153 163 137 135 142 139 132 121 165 164 177 172 162 176 158 151 258 277 260 288 18 15 348 1 293 341 217 182 157 227 126 212 158 158 155 151 144 125 125 111 95 68 37 70 86 126 90 69 162 187 261 40 47 104 85 16 171 111 169 216 185 317 291
187 188 200 179 191 176 167 170 165 165 159 157 152 151 151 156 154 145 138 134 142 138 157 126 128 125 127 135 133 143 142 165 150 149 155 164 160 170 169 220 213 272 47 298 262 219 179 223 210 149 138 133 142 147 161 162 128 117 117 133 124 132 111 102 78 62 79 112 135 86 138 191 255 149 168 105 47 123 43 75 238 134 208 192 225
171 172 184 175 178 169 164 177 174 164 160 163 163 156 152 149 162 163 153 167 150 142 132 124 123 113 138 136 134 138 134 141 138 139 146 148 169 137 159 131 36 263 183 244 258 218 190 229 133 158 145 140 132 155 147 167 158 148 148 137 148 145 106 120 113 103 72 78 125 173 109 195 154 167 154 174 199 176 94 99 58 54 186 188 180
170 172 168 165 179 161 187 180 170 165 164 167 154 151 150 162 163 158 154 150 144 152 134 129 118 112 127 120 125 133 135 136 140 118 107 127 118 121 118 106 221 126 316 210 223 326 257 183 166 159 176 161 149 169 162 188 185 193 169 165 161 156 124 130 150 111 108 122 119 166 47 251 159 132 144 175 171 164 132 101 287 123 238 129 176
169 177 167 164 181 175 188 181 168 162 166 156 152 153 161 162 162 136 148 125 87 75 98 103 124 123 118 118 120 122 131 134 138 135 136 115 106 102 110 113 134 148 207 202 201 214 203 196 187 164 147 132 145 177 180 238 223 185 180 184 184 192 160 146 86 83 71 89 157 162 171 163 74 90 94 96 65 38 64 73 69 42 47 18 33
177 182 183 166 176 181 177 192 168 167 164 156 166 151 155 150 141 133 129 134 123 111 109 115 113 123 119 107 104 115 119 128 127 134 118 112 105 100 107 97 99 87 220 186 186 197 190 195 192 139 184 168 170 168 205 219 258 186 203 218 157 233 205 170 153 81 93 91 19 88 122 81 110 114 123 102 90 79 55 46 54 46 32 26 24
188 185 187 178 178 172 179 181 171 164 163 159 158 150 150 150 141 127 122 119 132 133 132 124 119 110 116 122 109 104 127 122 122 118 118 113 101 71 58 82 69 76 303 142 166 178 185 188 171 176 208 202 195 170 205 225 237 265 307 188 190 209 235 134 165 117 130 127 94 99 61 119 86 105 125 91 88 86 75 70 49 46 28 26 27
195 188 185 183 180 170 178 173 171 165 160 159 155 158 161 152 150 149 151 153 142 149 140 135 141 139 109 107 115 111 107 106 127 112 99 99 97 105 108 123 116 89 32 40 144 175 174 179 191 174 177 209 225 208 192 194 242 213 261 341 3 6 317 131 200 132 98 71 85 75 112 105 128 95 72 97 88 79 79 75 66 63 49 42 37
195 193 186 180 187 174 176 175 172 168 160 160 164 165 159 155 157 157 154 150 143 131 116 119 114 108 110 118 114 115 112 113 103 106 98 99 108 127 121 112 113 136 133 156 95 224 165 173 143 202 173 181 210 212 197 187 193 219 220 224 150 182 233 184 180 130 147 126 97 100 75 70 60 65 68 72 82 78 76 81 75 67 63 57 51
192 192 191 181 183 186 177 178 172 169 166 163 170 168 160 159 163 155 147 146 139 132 138 126 117 116 115 125 131 127 121 111 114 102 111 107 109 116 103 96 107 119 143 127 115 90 78 86 104 161 166 187 190 220 198 167 205 174 207 216 210 216 211 216 134 226 194 139 132 100 89 78 79 75 73 75 76 79 68 59 75 72 65 59 51
187 193 189 178 171 180 180 176 176 172 168 167 168 167 162 161 161 152 146 134 136 141 140 139 134 126 124 123 117 116 111 96 89 99 94 94 115 109 94 91 83 86 97 103 90 78 70 70 99 134 131 139 159 196 204 179 212 153 181 182 190 204 172 211 228 225 246 149 133 123 110 99 92 80 79 75 80 79 71 64 61 74 76 68 64
185 189 177 163 166 172 177 178 177 173 161 165 166 162 159 162 161 154 142 138 141 139 141 138 137 141 130 133 133 134 127 124 109 84 87 92 92 109 106 96 90 76 67 72 87 83 70 64 54 53 70 88 74 108 216 162 216 132 211 151 185 178 209 177 211 232 166 138 148 145 135 135 113 96 100 104 95 91 91 78 65 60 59 62 67
179 176 164 152 144 156 167 172 176 169 161 162 162 160 160 168 167 155 145 143 144 145 142 147 145 150 146 144 141 133 134 123 124 109 86 88 88 84 87 87 87 68 62 61 54 63 68 65 72 73 77 80 88 70 86 121 62 158 219 154 232 196 203 196 173 206 187 173 148 154 155 121 117 116 95 88 94 96 95 90 77 63 63 64 61